Location: Archamps
(46.1365°N, 6.1329°E)
Time: 07:34:31
(UTC+00:00)

Cosmos 1606 Rocket - Pass Details

Date: 28 January 2023
Orbit: 602 x 630 km, 82.5° (Epoch: 21 March)

Event Time Altitude Azimuth Distance (km) Brightness Sun altitude
Rises 18:28:18 0° 353° (N) 2,869 7.0 -19.8°
Reaches altitude 10° 18:30:33 10° 357° (N) 1,959 6.1 -20.2°
Maximum altitude 18:34:51 65° 79° (E) 667 3.4 -20.9°
Enters shadow 18:36:24 37° 148° (SSE) 940 4.2 -21.2°
